Flag for Canada Weather past 2 weeks in Fort Simpson, Northwest Territories, Canada

Now
37 °F

Passing clouds.


Feels Like: 33 °F
Forecast: 35 / 41 °F
Wind: 6 mph from Northwest

Location: Fort Simpson

Current Time: Sep 30, 2014 at 10:45:49 AM

Latest Report: Sep 30, 2014 at 9:00 AM


Visibility: 15 mi

Pressure: 29.76 "Hg

Humidity: 87%

Dew point: 34 °F

Location of Fort SimpsonLocation

Historic Weather in Fort Simpson — Graph

°F

Fort Simpson temperature yesterday

Maximum temperature yesterday: 50 °F (at 12:00 AM)
Minimum temperature yesterday: 37 °F (at 11:00 PM)
Average temperature yesterday: 45 °F

Past Weeks' High & Low Weather Summary

 TemperatureHumidityPressure
High73 °F (Sep 22, 3:00 PM)100% (Sep 18, 1:00 AM)30.27 "Hg (Sep 18, 1:00 AM)
Low30 °F (Sep 18, 2:00 AM)21% (Sep 22, 6:00 PM)29.35 "Hg (Sep 22, 1:00 PM)
Average47 °F79%29.76 "Hg
* Reported Sep 15 9:00 AM — Sep 30 9:00 AM, Fort Simpson, Weather by CustomWeather, © 2014

Note: Actual official high and low records may vary slightly from our data, if they occured in-between our weather recording intervals... More about our weather records

Advertising

Fort Simpson weather history for previous 24 hours

 ConditionsComfort  
Time TempWeatherWind HumidityBarometerVisibility
9:00 AM
Sep 30
37 °FPassing clouds.6 mph87%29.76 "Hg15 mi
8:00 AM37 °FPassing clouds.7 mph87%29.74 "Hg15 mi
7:00 AM37 °FPassing clouds.9 mph93%29.72 "Hg15 mi
6:00 AM37 °FLight rain. Passing clouds.8 mph93%29.71 "Hg15 mi
5:00 AM37 °FLight rain. Overcast.7 mph93%29.70 "Hg10 mi
4:00 AM37 °FLight rain. Passing clouds.6 mph93%29.68 "Hg15 mi
3:00 AM37 °FPassing clouds.6 mph93%29.67 "Hg15 mi
2:00 AM37 °FPassing clouds.7 mph93%29.64 "Hg15 mi
1:00 AM36 °FPassing clouds.2 mph93%29.63 "Hg15 mi
12:00 AM37 °FPassing clouds.6 mph93%29.60 "Hg15 mi
11:00 PM
Sep 29
37 °FPassing clouds.8 mph93%29.57 "Hg15 mi
10:00 PM39 °FPassing clouds.6 mph93%29.56 "Hg15 mi
9:00 PM43 °FPassing clouds.14 mph87%29.54 "Hg15 mi
8:00 PM43 °FPassing clouds.8 mph93%29.53 "Hg15 mi
7:00 PM46 °FPassing clouds.8 mph87%29.52 "Hg15 mi
6:00 PM48 °FPartly sunny.12 mph82%29.50 "Hg15 mi
5:00 PM48 °FPartly sunny.12 mph87%29.49 "Hg15 mi
4:00 PM46 °FBroken clouds.7 mph93%29.48 "Hg15 mi
3:00 PM45 °FFog.3 mph100%29.47 "Hg6 mi
2:00 PM45 °FLow clouds.7 mph93%29.47 "Hg15 mi
1:00 PM45 °FLight rain. Mostly cloudy.6 mph93%29.45 "Hg15 mi
12:00 PM45 °FLight rain. Mostly cloudy.7 mph93%29.45 "Hg10 mi
11:00 AM43 °FLight rain. Mostly cloudy.5 mph100%29.45 "Hg10 mi
10:00 AM43 °FLight rain. More clouds than sun.6 mph100%29.45 "Hg12 mi
Weather by CustomWeather, © 2014

See weather overviewHow to use our weather pages